Weather Service Report


409 
ASUS45 KSLC 291710
RWRUT 

UTAH REGIONAL WEATHER ROUNDUP
NATIONAL WEATHER SERVICE SALT LAKE CITY UT
1100 AM MDT SAT AUG 29 2015

UTZ001>011-023>025-291800-

NORTHERN UTAH
  
CITY           SKY/WX    TMP DP  RH WIND       PRES   REMARKS
BRIGHAM CITY   MOSUNNY   81  36  20 CALM      30.08F                  
HILL AFB       PTSUNNY   83  44  25 SE8       30.12R                  
LOGAN          SUNNY     74  43  32 CALM      30.10R                  
OGDEN          MOSUNNY   84  44  24 SE6       30.09R                  
PROVO AIRPORT  MOSUNNY   81  45  28 CALM      30.14S                  
SALT LAKE CITY PTSUNNY   88  40  18 S16G25    30.07R                  
VERNAL         SUNNY     75  39  27 S5        30.25F                  
WENDOVER       CLOUDY    81  39  22 NE8       30.05S                  
HEBER CITY     SUNNY     72  41  33 CALM      30.22S                  
WEST JORDAN    SUNNY     84  43  23 SE18      30.12R                  

$$

UTZ012>022-026-027-291800-

SOUTHERN/CENTRAL UTAH
  
CITY           SKY/WX    TMP DP  RH WIND       PRES   REMARKS
BLANDING       SUNNY     78  45  31 SE12      30.39S                  
BRYCE CANYON   SUNNY     75  40  28 SE10      30.41S                  
CEDAR CITY     MOSUNNY   84  42  22 SW14      30.21S                  
DELTA          SUNNY     86  38  18 S6        30.14S                  
HANKSVILLE     SUNNY     77  43  29 CALM      30.20F                  
MILFORD        MOSUNNY   86  44  23 S13       30.16R                  
MOAB/CYNLANDS  NOT AVBL                                               
PRICE          SUNNY     78  37  22 SE6       30.29R                  
ST GEORGE      SUNNY     86  52  30 CALM      30.05S                  

$$

REGIONAL REPORTS     COLORADO/ARIZONA
  
CITY           SKY/WX    TMP DP  RH WIND       PRES   REMARKS
CRAIG, CO      SUNNY     77  42  28 NE8       30.32S                  
GRAND JUNCTION SUNNY     76  45  33 SE9       30.23F                  
RIFLE          SUNNY     73  46  38 VRB5      30.29F                  
MONTROSE       SUNNY     77  47  34 VRB5      30.32S                  
CORTEZ         SUNNY     80  45  28 SE8       30.31S                  
PAGE, AZ       SUNNY     83  48  29 N6        30.17R                  
GRAND CANYON   SUNNY     82  39  21 S9G17     30.33S                  
KINGMAN        SUNNY     94  51  23 CALM      30.06R HX  91           
FLAGSTAFF      MOSUNNY   77  45  32 E7        30.38R                  

$$

REGIONAL REPORTS    NEVADA/IDAHO/WYOMING
  
CITY           SKY/WX    TMP DP  RH WIND       PRES   REMARKS
LAS VEGAS, NV  MOSUNNY   98  44  15 SE9       29.90R HX  94           
ELY            PTSUNNY   81  44  27 S22       30.20S                  
ELKO           MOSUNNY   79  46  31 CALM      30.06F                  
POCATELLO, ID  PTSUNNY   89  38  16 S20G32    30.01F                  
EVANSTON, WY   MOSUNNY   78  35  21 SW13      30.31S                  
ROCK SPRINGS   SUNNY     77  37  23 E3        30.31F                  
KEMMERER       MOSUNNY   75  32  20 SE5       30.33F                  

$$

Return to Home page


Western Regional Climate Center, wrcc@dri.edu